Weather History for EGLC - October, 2012

Change the Weather History Date:

Thursday, October 25, 2012

  Actual Average Record
Temperature  
Mean Temperature 52 °F -  
Max Temperature 55 °F 56 °F 66 °F (1996)
Min Temperature 50 °F 47 °F 35 °F (1997)
Degree Days  
Heating Degree Days 12    
Growing Degree Days 2 (Base 50)    
Moisture  
Dew Point 51 °F    
Average Humidity 89    
Maximum Humidity 100    
Minimum Humidity 72    
Precipitation  
Precipitation 0.00 in - - ()
Sea Level Pressure  
Sea Level Pressure 30.03 in    
Wind  
Wind Speed 11 mph ()    
Max Wind Speed 15 mph    
Max Gust Speed -    
Visibility 4.4 miles    
Events Rain    
Averages and records for this station are not official NWS values.
T = Trace of Precipitation, MM = Missing Value Source: Averaged Metar Reports

Daily Weather History Graph

Daily Weather History Graph

Search for Another Location

Airport or City:

Trip Planner

Search our weather history database for the weather conditions in past years. The results will help you decide how hot, cold, wet, or windy it might be!

Date:

Astronomy

Oct. 25, 2012 Rise Set
Actual Time 7:41 AM BST 5:45 PM BST
Civil Twilight 7:07 AM BST 6:19 PM BST
Nautical Twilight 6:27 AM BST 6:58 PM BST
Astronomical Twilight 5:49 AM BST 7:37 PM BST
Moon 3:46 PM BST (10/25) 2:55 AM BST (10/25)
Length of Visible Light 11h 12m
Length of Day
10h 03m
Waxing Gibbous, 82% of the Moon is Illuminated
Oct 25
Waxing Gibbous
Oct 29
Full
Nov 7
Last Quarter
Nov 13
New
Nov 20
First Quarter

Hourly Weather History & Observations

Time (BST) Temp. Dew Point Humidity Pressure Visibility Wind Dir Wind Speed Gust Speed Precip Events Conditions
12:20 AM 55.4 °F 55.4 °F 100% 30.06 in 1.0 mi ENE 10.4 mph - N/A   Drizzle
12:50 AM 55.4 °F 55.4 °F 100% 30.06 in 0.8 mi ENE 12.7 mph - N/A   Drizzle
1:20 AM 55.4 °F 55.4 °F 100% 30.06 in 0.9 mi ENE 12.7 mph - N/A   Drizzle
1:50 AM 55.4 °F 55.4 °F 100% 30.06 in 0.9 mi ENE 12.7 mph - N/A   Drizzle
2:20 AM 55.4 °F 55.4 °F 100% 30.06 in 1.1 mi ENE 13.8 mph - N/A   Light Drizzle
2:50 AM 55.4 °F 55.4 °F 100% 30.04 in 1.1 mi ENE 12.7 mph - N/A   Mostly Cloudy
3:20 AM 55.4 °F 53.6 °F 94% 30.04 in 1.1 mi ENE 11.5 mph - N/A   Mostly Cloudy
3:50 AM 55.4 °F 53.6 °F 94% 30.04 in 1.6 mi ENE 13.8 mph - N/A   Mostly Cloudy
4:20 AM 55.4 °F 53.6 °F 94% 30.04 in - ENE 13.8 mph - N/A Rain Light Rain Showers
4:50 AM 55.4 °F 53.6 °F 94% 30.04 in - ENE 11.5 mph - N/A   Mostly Cloudy
5:20 AM 55.4 °F 53.6 °F 94% 30.04 in - ENE 11.5 mph - N/A   Scattered Clouds
5:50 AM 55.4 °F 53.6 °F 94% 30.04 in 2.8 mi ENE 13.8 mph - N/A   Mostly Cloudy
6:20 AM 55.4 °F 53.6 °F 94% 30.04 in - ENE 10.4 mph - N/A   Mostly Cloudy
6:50 AM 55.4 °F 53.6 °F 94% 30.04 in 2.5 mi ENE 11.5 mph - N/A   Mostly Cloudy
7:20 AM 55.4 °F 53.6 °F 94% 30.04 in 2.8 mi ENE 10.4 mph - N/A   Mostly Cloudy
7:50 AM 55.4 °F 53.6 °F 94% 30.04 in 3.7 mi ENE 10.4 mph - N/A   Mostly Cloudy
8:20 AM 55.4 °F 53.6 °F 94% 30.04 in 5.6 mi ENE 10.4 mph - N/A   Mostly Cloudy
8:50 AM 55.4 °F 53.6 °F 94% 30.04 in 6.2 mi ENE 10.4 mph - N/A   Mostly Cloudy
9:20 AM 55.4 °F 53.6 °F 94% 30.04 in 3.1 mi ENE 10.4 mph - N/A   Mostly Cloudy
9:50 AM 55.4 °F 53.6 °F 94% 30.04 in 1.3 mi ENE 10.4 mph - N/A   Light Drizzle
10:20 AM 55.4 °F 53.6 °F 94% 30.04 in 1.7 mi NE 6.9 mph - N/A   Drizzle
10:50 AM 55.4 °F 53.6 °F 94% 30.04 in 2.5 mi NE 12.7 mph - N/A   Drizzle
11:20 AM 53.6 °F 53.6 °F 100% 30.04 in - NE 8.1 mph - N/A   Light Drizzle
11:50 AM 53.6 °F 51.8 °F 94% 30.04 in 3.7 mi NE 10.4 mph - N/A   Mostly Cloudy
12:20 PM 53.6 °F 51.8 °F 94% 30.04 in 6.2 mi NE 12.7 mph - N/A   Mostly Cloudy
12:50 PM 53.6 °F 51.8 °F 94% 30.01 in 4.3 mi NE 11.5 mph - N/A   Mostly Cloudy
1:20 PM 53.6 °F 51.8 °F 94% 30.01 in 6.2 mi ENE 12.7 mph - N/A   Mostly Cloudy
1:50 PM 55.4 °F 51.8 °F 88% 30.01 in 6.2 mi ENE 12.7 mph - N/A   Mostly Cloudy
2:20 PM 55.4 °F 50.0 °F 82% 30.01 in 6.2 mi NE 10.4 mph - N/A   Mostly Cloudy
2:50 PM 55.4 °F 50.0 °F 82% 30.01 in 6.2 mi NE 12.7 mph - N/A   Mostly Cloudy
3:20 PM 55.4 °F 50.0 °F 82% 29.98 in 6.2 mi ENE 13.8 mph - N/A   Mostly Cloudy
3:50 PM 55.4 °F 48.2 °F 77% 29.98 in 6.2 mi ENE 12.7 mph - N/A   Mostly Cloudy
4:20 PM 55.4 °F 46.4 °F 72% 29.98 in 6.2 mi ENE 13.8 mph - N/A   Scattered Clouds
4:50 PM 53.6 °F 46.4 °F 77% 29.98 in 6.2 mi ENE 15.0 mph - N/A   Mostly Cloudy
5:20 PM 53.6 °F 48.2 °F 82% 29.98 in 6.2 mi ENE 9.2 mph - N/A   Mostly Cloudy
5:50 PM 53.6 °F 48.2 °F 82% 30.01 in 6.2 mi NE 10.4 mph - N/A   Mostly Cloudy
6:20 PM 53.6 °F 48.2 °F 82% 30.01 in 6.2 mi NE 10.4 mph - N/A   Mostly Cloudy
6:50 PM 51.8 °F 48.2 °F 88% 30.01 in 6.2 mi NE 10.4 mph - N/A   Mostly Cloudy
7:20 PM 51.8 °F 46.4 °F 82% 30.01 in 6.2 mi NE 11.5 mph - N/A   Mostly Cloudy
7:50 PM 51.8 °F 46.4 °F 82% 30.04 in 6.2 mi NE 11.5 mph - N/A   Mostly Cloudy
8:20 PM 50.0 °F 44.6 °F 82% 30.04 in 6.2 mi NE 10.4 mph - N/A   Mostly Cloudy
8:50 PM 50.0 °F 44.6 °F 82% 30.04 in 6.2 mi NE 12.7 mph - N/A   Mostly Cloudy
9:20 PM 50.0 °F 44.6 °F 82% 30.04 in 6.2 mi NE 12.7 mph - N/A   Overcast
9:50 PM 50.0 °F 44.6 °F 82% 30.04 in 6.2 mi NE 11.5 mph - N/A   Overcast
10:20 PM 50.0 °F 44.6 °F 82% 30.01 in 6.2 mi NE 10.4 mph - N/A   Mostly Cloudy
10:50 PM 50.0 °F 44.6 °F 82% 30.01 in 6.2 mi NE 12.7 mph - N/A   Overcast
11:20 PM 50.0 °F 44.6 °F 82% 30.01 in 6.2 mi NE 11.5 mph - N/A   Mostly Cloudy
11:50 PM 50.0 °F 42.8 °F 76% 30.01 in 6.2 mi NE 10.4 mph - N/A   Overcast